Regional Weather Roundup
Issued by NWS

Home | Current Version | Previous Version | Graphics & Text | Print | Product List | Glossary On
Versions: 1 2 3 4 5 6 7 8 9 10 11 12 13 14 15 16 17 18 19 20 21 22 23 24 25 26 27 28 29 30 31 32 33 34 35 36 37 38 39 40 41 42 43 44 45 46 47 48 49 50
293
ASUS43 KMKX 290500
RWRWI

WISCONSIN REGIONAL WEATHER ROUNDUP
NATIONAL WEATHER SERVICE MILWAUKEE/SULLIVAN WI
1200 AM CDT SAT APR 29 2017

NOTE: "FAIR" INDICATES FEW OR NO CLOUDS BELOW 12,000 FEET WITH NO
SIGNIFICANT WEATHER AND/OR OBSTRUCTIONS TO VISIBILITY.

WIZ001-002-006>008-014>016-023>028-290600-
NORTHWEST WISCONSIN

CITY           SKY/WX    TMP DP  RH WIND       PRES   REMARKS
SUPERIOR ARPT  CLEAR     36  29  75 E3        30.17S
ASHLAND        CLEAR     30  27  88 CALM      30.17S
HAYWARD        CLEAR     32  26  78 N6        30.14R WCI  26
SIREN          MOCLDY    42  26  53 NE13      30.13R
CUMBERLAND     PTCLDY    39  27  60 N9        30.11R WCI  33
RICE LAKE      CLEAR     40  30  67 N5        30.11R
CHETEK         CLEAR     34  32  93 CALM      30.10R
LADYSMITH      CLEAR     38  30  73 NE13      30.13R WCI  30
EAU CLAIRE     NOT AVBL
MENOMONIE      CLEAR     37  31  77 CALM      30.09S
NEW RICHMOND   CLEAR     36  30  77 CALM      30.11R
OSCEOLA        CLEAR     35  32  90 CALM      30.15R
$$

WIZ003>005-009-010-017-018-290600-
NORTH CENTRAL WISCONSIN

CITY           SKY/WX    TMP DP  RH WIND       PRES   REMARKS
MANITOWISH WTR CLEAR     30  28  92 N3        30.11
ARBOR VITAE    CLEAR     32  28  84 N5        30.10S WCI  27
WOODRUFF       CLEAR     32  28  84 N5        30.10S WCI  27
RHINELANDER    CLEAR     33  27  78 N3        30.11R
EAGLE RIVER    CLEAR     30  24  78 N6        30.10S WCI  24
LAND O LAKES   PTCLDY    29  28  92 CALM      30.12S
PHILLIPS       CLEAR     32  27  80 NE9       30.11R WCI  25
TOMAHAWK       CLEAR     33  28  83 N6        30.11R WCI  27
MEDFORD        CLEAR     33  30  90 N5        30.07R WCI  28
MERRILL        CLEAR     31  30  96 CALM      30.09S
$$

WIZ029-030-035-036-043>047-290600-
CENTRAL WISCONSIN

CITY           SKY/WX    TMP DP  RH WIND       PRES   REMARKS
WAUSAU         CLOUDY    36  29  75 CALM      30.07S
MOSINEE        CLOUDY    37  30  75 NE5       30.09R WCI  34
MARSHFIELD     CLOUDY    39  29  67 NE3       30.07R
STEVENS POINT  PTCLDY    37  29  73 NE3       30.08S
WAUPACA        CLOUDY    47  32  56 N7        30.08S
WAUTOMA        CLOUDY    45  34  65 MISG      30.09R
WISC RAPIDS    CLOUDY    43  31  62 E7        30.10R
CAMP DOUGLAS   NOT AVBL
$$

WIZ011>013-019>022-031-037>040-048>050-290600-
NORTHEAST WISCONSIN

CITY           SKY/WX    TMP DP  RH WIND       PRES   REMARKS
ANTIGO         CLEAR     33  30  88 N3        30.07F
SHAWANO        CLOUDY    44  32  63 N6        30.09S
OCONTO         NOT AVBL
STURGEON BAY   CLOUDY    42  32  67 N10       30.09R
GREEN BAY      CLOUDY    45  33  63 N15       30.08R
MANITOWOC      NOT AVBL
APPLETON       CLOUDY    45  30  57 N14G21    30.06R
CLINTONVILLE   CLOUDY    43  30  61 N7        30.08S
OSHKOSH        CLOUDY    46  36  68 N10       30.06R
$$

WIZ032>034-041-042-053>061-290600-
SOUTHWEST WISCONSIN

CITY           SKY/WX    TMP DP  RH WIND       PRES   REMARKS
LA CROSSE      MOCLDY    42  34  73 N5        30.09R
SPARTA         PTCLDY    38  35  90 CALM      30.09R
VIROQUA        MOCLDY    41  35  78 N5        30.05R
BOSCOBEL       CLOUDY    45  40  82 CALM      30.08R
PRAIRIE DU CHI MOCLDY    43  37  79 CALM      30.06R
PLATTEVILLE    CLOUDY    45  42  91 NE9       30.05R
$$

WIZ056-057-062-063-064-067-068-290600-
SOUTH CENTRAL WISCONSIN

CITY           SKY/WX    TMP DP  RH WIND       PRES   REMARKS
REEDSBURG      CLOUDY    43  40  86 CALM      30.06R
BARABOO/DELLS  CLOUDY    43  38  84 CALM      30.06S
LONE ROCK      NOT AVBL
MINERAL POINT  CLOUDY    45  41  87 NE6       30.05R
MADISON        CLOUDY    45  40  82 N5        30.06R
MIDDLETON      CLOUDY    46  41  84 N6        30.06R
WATERTOWN      CLOUDY    45  44  97 N5        30.04R
MONROE         CLOUDY    43  41  93 N14       30.03R
JANESVILLE     CLOUDY    46  45  93 NE7       30.04R
$$

WIZ051-052-058>065-066-070>072-290600-
SOUTHEAST WISCONSIN

CITY           SKY/WX    TMP DP  RH WIND       PRES   REMARKS
MILWAUKEE      CLOUDY    45  42  89 N5        30.05R
WAUKESHA       CLOUDY    43  41  93 N6        30.05R
MILWAUKEE/TIMM CLOUDY    43  39  87 N5        30.04R
RACINE         CLOUDY    42  39  89 N9        30.06R FOG
KENOSHA        CLOUDY    44  41  89 NE6       30.04R FOG
FOND DU LAC    CLOUDY    47  36  65 N7        30.06R
SHEBOYGAN      CLOUDY    43  41  93 N3        30.05R FOG
WEST BEND      CLOUDY    43  43 100 N3        30.04S
JUNEAU         DRIZZLE   44  41  89 N5        30.06R
$$

LSZ147-162-290600-
LAKE SUPERIOR

STATION/POSITION TIME  TEMP    WIND        PRES    WAVE
                       AIR SEA DIR/SP/G            HT/PER
                 (UTC) (F)     (DEG/KT/KT) (MB)    (FT/S)
DEVILS ISLAND    0400   39     330/  6/  6 1021.9R
PORT WING        0440   31     160/  3/  3 1021.7S
SAXON HARBOR     0440   30     180/  3/  3 1021.0S
$$

LMZ867-665-643>646-290600-
LAKE MICHIGAN

STATION/POSITION TIME  TEMP    WIND        PRES    WAVE
                       AIR SEA DIR/SP/G            HT/PER
                 (UTC) (F)     (DEG/KT/KT) (MB)    (FT/S)
CHAMBERS ISLAND  0440   41     310/  4/  5 1018.6R
N MID LAKE BUOY  0350   38 37  310/  4/  6 1019.8R   1/ 4
NORTHPORT PIER   0430   40     340/  6/  7 1018.6S
KEWAUNEE LAKESHO 0430   44     360/  5/  9 1018.0R
SHEBOYGAN LAKESH 0400   41     340/  5/  5 1017.8R
PORT WASHINGTON  0440   44     320/  3/  5 1018.3R
MILWAUKEE LAKESH 0420   43     340/  8/ 10   N/A
S MID LAKE BUOY  0350   43 41   20/ 16/ 19 1016.3R   1/ 3
KENOSHA   LAKESH 0400   42      20/ 17/ 18 1016.3
$$

TC  - TEMPERATURE IN CELSIUS
VSB - VISIBILITY IN STATUTE MILES
WCI - WIND CHILL INDEX
HX  - HEAT INDEX





USA.gov is the U.S. government's official web portal to all federal, state and local government web resources and services.